| time (UTC) | temp C | wind direction | speed KPH | gust KPH | rain 1hr cm | rain 24hr cm | rain mn cm | humidity % | barometer mb |
| 20260904070150 | 12 | 232 | 3.2 | 14.5 | 0.00 | 0.00 | 0.00 | 86 | 955.1 |
| 20260904065650 | 11 | 88 | 3.2 | 9.7 | 0.00 | 0.00 | 0.00 | 93 | 955.2 |
| 20260904065150 | 10 | 250 | 3.2 | 9.7 | 0.00 | 0.00 | 0.00 | 95 | 955.2 |
| 20260904064650 | 10 | 228 | 3.2 | 9.7 | 0.00 | 0.00 | 0.00 | 97 | 955.2 |
| 20260904064150 | 10 | 338 | 3.2 | 11.3 | 0.00 | 0.00 | 0.00 | 98 | 955.3 |
| 20260904063650 | 9 | 234 | 4.8 | 11.3 | 0.00 | 0.00 | 0.00 | 99 | 955.2 |
| 20260904063150 | 9 | 275 | 4.8 | 11.3 | 0.00 | 0.00 | 0.00 | 98 | 955.3 |
| 20260904062650 | 9 | 335 | 4.8 | 11.3 | 0.00 | 0.00 | 0.00 | 10 | 955.3 |
| 20260904062150 | 8 | 281 | 4.8 | 11.3 | 0.00 | 0.00 | 0.00 | 10 | 955.3 |
| 20260904061650 | 8 | 278 | 4.8 | 11.3 | 0.00 | 0.00 | 0.00 | 10 | 955.3 |
| 20260904061150 | 8 | 285 | 6.4 | 12.9 | 0.00 | 0.00 | 0.00 | 10 | 955.3 |
| 20260904060650 | 8 | 312 | 6.4 | 12.9 | 0.00 | 0.00 | 0.00 | 10 | 955.3 |
| 20260904060150 | 8 | 261 | 6.4 | 12.9 | 0.00 | 0.00 | 0.00 | 10 | 955.3 |
| 20260904055650 | 8 | 288 | 4.8 | 9.7 | 0.00 | 0.00 | 0.00 | 10 | 955.3 |
| 20260904055150 | 8 | 276 | 4.8 | 9.7 | 0.00 | 0.00 | 0.00 | 99 | 955.4 |
| 20260904054649 | 8 | 331 | 4.8 | 9.7 | 0.00 | 0.00 | 0.00 | 10 | 955.4 |
| 20260904054149 | 8 | 269 | 4.8 | 9.7 | 0.00 | 0.00 | 0.00 | 99 | 955.4 |
| 20260904053649 | 8 | 275 | 4.8 | 8.0 | 0.00 | 0.00 | 0.00 | 99 | 955.3 |
| 20260904053149 | 8 | 309 | 3.2 | 8.0 | 0.00 | 0.00 | 0.00 | 99 | 955.4 |
| 20260904052649 | 8 | 359 | 1.6 | 9.7 | 0.00 | 0.00 | 0.00 | 98 | 955.4 |
| 20260904052149 | 8 | 193 | 1.6 | 9.7 | 0.00 | 0.00 | 0.00 | 99 | 955.4 |
| 20260904051649 | 8 | 238 | 1.6 | 8.0 | 0.00 | 0.00 | 0.00 | 99 | 955.4 |
| 20260904051149 | 8 | 243 | 3.2 | 9.7 | 0.00 | 0.00 | 0.00 | 10 | 955.5 |
| 20260904050649 | 8 | 236 | 3.2 | 9.7 | 0.00 | 0.00 | 0.00 | 99 | 955.4 |
| 20260904050149 | 8 | 231 | 3.2 | 9.7 | 0.00 | 0.00 | 0.00 | 99 | 955.5 |
| 20260904045649 | 8 | 225 | 1.6 | 9.7 | 0.00 | 0.00 | 0.00 | 99 | 955.5 |
| 20260904045149 | 8 | 256 | 3.2 | 9.7 | 0.00 | 0.00 | 0.00 | 10 | 955.6 |
| 20260904044649 | 8 | 149 | 3.2 | 9.7 | 0.00 | 0.00 | 0.00 | 10 | 955.6 |
| 20260904044149 | 8 | 232 | 4.8 | 12.9 | 0.00 | 0.00 | 0.00 | 10 | 955.6 |
| 20260904043649 | 8 | 104 | 3.2 | 12.9 | 0.00 | 0.00 | 0.00 | 10 | 955.6 |
| 20260904043148 | 8 | 217 | 3.2 | 11.3 | 0.00 | 0.00 | 0.00 | 10 | 955.4 |
| 20260904042648 | 8 | 283 | 4.8 | 11.3 | 0.00 | 0.00 | 0.00 | 10 | 955.5 |
| 20260904042148 | 8 | 235 | 4.8 | 11.3 | 0.00 | 0.00 | 0.00 | 10 | 955.5 |
| 20260904041648 | 8 | 242 | 4.8 | 11.3 | 0.00 | 0.00 | 0.00 | 10 | 955.5 |
| 20260904041148 | 8 | 243 | 4.8 | 11.3 | 0.00 | 0.00 | 0.00 | 10 | 955.5 |
| 20260904040648 | 8 | 242 | 4.8 | 14.5 | 0.00 | 0.00 | 0.00 | 10 | 955.5 |
| 20260904040148 | 8 | 224 | 4.8 | 14.5 | 0.00 | 0.00 | 0.00 | 10 | 955.5 |
| 20260904035648 | 8 | 46 | 3.2 | 14.5 | 0.00 | 0.00 | 0.00 | 10 | 955.4 |
| 20260904035148 | 8 | 189 | 3.2 | 12.9 | 0.00 | 0.00 | 0.00 | 10 | 955.5 |
| 20260904034648 | 8 | 218 | 1.6 | 11.3 | 0.00 | 0.00 | 0.00 | 10 | 955.6 |
| 20260904034148 | 8 | 208 | 1.6 | 11.3 | 0.00 | 0.00 | 0.00 | 10 | 955.6 |
| 20260904033648 | 7 | 87 | 1.6 | 8.0 | 0.00 | 0.00 | 0.00 | 10 | 955.5 |
| 20260904033147 | 7 | 98 | 3.2 | 11.3 | 0.00 | 0.00 | 0.00 | 10 | 955.5 |
| 20260904032647 | 7 | 109 | 3.2 | 12.9 | 0.00 | 0.00 | 0.00 | 10 | 955.5 |
| 20260904032147 | 7 | 268 | 3.2 | 12.9 | 0.00 | 0.00 | 0.00 | 10 | 955.5 |
| 20260904031647 | 7 | 62 | 1.6 | 12.9 | 0.00 | 0.00 | 0.00 | 10 | 955.5 |
| 20260904031147 | 7 | 161 | 3.2 | 14.5 | 0.00 | 0.00 | 0.00 | 10 | 955.5 |
| 20260904030647 | 7 | 118 | 3.2 | 14.5 | 0.00 | 0.00 | 0.00 | 10 | 955.7 |
| 20260904030147 | 8 | 72 | 1.6 | 9.7 | 0.00 | 0.00 | 0.00 | 10 | 955.7 |
| 20260904025647 | 8 | 98 | 1.6 | 9.7 | 0.00 | 0.00 | 0.00 | 10 | 955.7 |
| 20260904025147 | 7 | 204 | 3.2 | 9.7 | 0.00 | 0.00 | 0.00 | 10 | 955.7 |
| 20260904024647 | 7 | 110 | 3.2 | 8.0 | 0.00 | 0.00 | 0.00 | 10 | 955.7 |
| 20260904024147 | 7 | 176 | 1.6 | 6.4 | 0.00 | 0.00 | 0.00 | 10 | 955.7 |
| 20260904023647 | 7 | 57 | 1.6 | 6.4 | 0.00 | 0.00 | 0.00 | 10 | 955.8 |
| 20260904023147 | 7 | 46 | 1.6 | 8.0 | 0.00 | 0.00 | 0.00 | 10 | 955.8 |
| 20260904022647 | 7 | 50 | 1.6 | 8.0 | 0.00 | 0.00 | 0.00 | 10 | 955.9 |
| 20260904022146 | 7 | 34 | 1.6 | 6.4 | 0.00 | 0.00 | 0.00 | 10 | 955.7 |
| 20260904021646 | 7 | 96 | 1.6 | 6.4 | 0.00 | 0.00 | 0.00 | 10 | 955.8 |
| 20260904021146 | 7 | 278 | 1.6 | 8.0 | 0.00 | 0.00 | 0.00 | 10 | 955.8 |
| 20260904020647 | 7 | 340 | 1.6 | 8.0 | 0.00 | 0.00 | 0.00 | 10 | 955.9 |
| 20260904020147 | 7 | 54 | 3.2 | 9.7 | 0.00 | 0.00 | 0.00 | 10 | 955.9 |
| 20260904015647 | 7 | 74 | 3.2 | 9.7 | 0.00 | 0.00 | 0.00 | 10 | 955.9 |
| 20260904015146 | 8 | 273 | 3.2 | 9.7 | 0.00 | 0.00 | 0.00 | 10 | 956.0 |
| 20260904014646 | 8 | 80 | 3.2 | 9.7 | 0.00 | 0.00 | 0.00 | 10 | 956.0 |
| 20260904014146 | 8 | 89 | 1.6 | 11.3 | 0.00 | 0.00 | 0.00 | 10 | 956.2 |
| 20260904013646 | 8 | 25 | 1.6 | 11.3 | 0.00 | 0.00 | 0.00 | 10 | 956.2 |
| 20260904013146 | 8 | 199 | 1.6 | 8.0 | 0.00 | 0.00 | 0.00 | 10 | 956.1 |
| 20260904012646 | 8 | 59 | 1.6 | 8.0 | 0.00 | 0.00 | 0.00 | 10 | 956.2 |
| 20260904012146 | 7 | 101 | 1.6 | 8.0 | 0.00 | 0.00 | 0.00 | 10 | 956.3 |
| 20260904011646 | 7 | 63 | 1.6 | 8.0 | 0.00 | 0.00 | 0.00 | 10 | 956.3 |
| 20260904011146 | 7 | 62 | 1.6 | 8.0 | 0.00 | 0.00 | 0.00 | 10 | 956.2 |
| 20260904010646 | 7 | 184 | 1.6 | 8.0 | 0.00 | 0.00 | 0.00 | 10 | 956.3 |
| 20260904010146 | 7 | 77 | 1.6 | 12.9 | 0.00 | 0.00 | 0.00 | 10 | 956.3 |
| 20260904005646 | 7 | 8 | 3.2 | 12.9 | 0.00 | 0.00 | 0.00 | 10 | 956.3 |
| 20260904005146 | 7 | 195 | 3.2 | 11.3 | 0.00 | 0.00 | 0.00 | 10 | 956.3 |
| 20260904004646 | 8 | 181 | 3.2 | 11.3 | 0.00 | 0.00 | 0.00 | 10 | 956.2 |
| 20260904004146 | 8 | 35 | 3.2 | 11.3 | 0.00 | 0.00 | 0.00 | 10 | 956.4 |
| 20260904003646 | 8 | 121 | 3.2 | 12.9 | 0.00 | 0.00 | 0.00 | 10 | 956.4 |
| 20260904003145 | 8 | 136 | 3.2 | 12.9 | 0.00 | 0.00 | 0.00 | 10 | 956.5 |
| 20260904002645 | 8 | 136 | 3.2 | 8.0 | 0.00 | 0.00 | 0.00 | 10 | 956.5 |
| 20260904002145 | 8 | 140 | 3.2 | 11.3 | 0.00 | 0.00 | 0.00 | 10 | 956.4 |
| 20260904001645 | 8 | 31 | 3.2 | 11.3 | 0.00 | 0.00 | 0.00 | 10 | 956.5 |
| 20260904001145 | 8 | 52 | 3.2 | 17.7 | 0.00 | 0.00 | 0.00 | 10 | 956.4 |
| 20260904000645 | 8 | 103 | 3.2 | 17.7 | 0.00 | 0.00 | 0.00 | 10 | 956.5 |
| 20260904000145 | 8 | 54 | 3.2 | 12.9 | 0.00 | 0.00 | 0.00 | 10 | 956.5 |
| 20260903235645 | 8 | 86 | 3.2 | 11.3 | 0.00 | 0.00 | 0.00 | 10 | 956.5 |
| 20260903235145 | 8 | 108 | 3.2 | 11.3 | 0.00 | 0.00 | 0.00 | 10 | 956.4 |
| 20260903234645 | 8 | 125 | 3.2 | 11.3 | 0.00 | 0.00 | 0.00 | 10 | 956.5 |
| 20260903234145 | 8 | 72 | 4.8 | 17.7 | 0.00 | 0.00 | 0.00 | 10 | 956.6 |
| 20260903233645 | 8 | 148 | 4.8 | 17.7 | 0.00 | 0.00 | 0.00 | 10 | 956.6 |
| 20260903233145 | 8 | 182 | 4.8 | 14.5 | 0.00 | 0.00 | 0.00 | 10 | 956.7 |
| 20260903232644 | 8 | 226 | 3.2 | 12.9 | 0.00 | 0.00 | 0.00 | 10 | 956.7 |
| 20260903232144 | 8 | 185 | 3.2 | 12.9 | 0.00 | 0.00 | 0.00 | 10 | 956.6 |
| 20260903231644 | 8 | 27 | 3.2 | 12.9 | 0.00 | 0.00 | 0.00 | 10 | 956.7 |
| 20260903231144 | 8 | 53 | 3.2 | 12.9 | 0.00 | 0.00 | 0.00 | 10 | 956.8 |
| 20260903230644 | 8 | 95 | 3.2 | 12.9 | 0.00 | 0.00 | 0.00 | 10 | 956.8 |
| 20260903230144 | 8 | 189 | 1.6 | 8.0 | 0.00 | 0.00 | 0.00 | 10 | 956.8 |
| 20260903225644 | 8 | 148 | 1.6 | 6.4 | 0.00 | 0.00 | 0.00 | 10 | 956.8 |
| 20260903225144 | 8 | 95 | 1.6 | 6.4 | 0.00 | 0.00 | 0.00 | 10 | 957.0 |
| 20260903224644 | 9 | 154 | 1.6 | 6.4 | 0.00 | 0.00 | 0.00 | 10 | 956.9 |
| 20260903224144 | 8 | 158 | 1.6 | 6.4 | 0.00 | 0.00 | 0.00 | 10 | 957.0 |
| 20260903223644 | 8 | 157 | 1.6 | 8.0 | 0.00 | 0.00 | 0.00 | 10 | 957.0 |
| 20260903223144 | 8 | 126 | 3.2 | 9.7 | 0.00 | 0.00 | 0.00 | 10 | 956.9 |
| 20260903222644 | 8 | 154 | 3.2 | 9.7 | 0.00 | 0.00 | 0.00 | 10 | 956.9 |
| 20260903222144 | 8 | 107 | 1.6 | 9.7 | 0.00 | 0.00 | 0.00 | 10 | 956.9 |
| 20260903221644 | 8 | 79 | 1.6 | 9.7 | 0.00 | 0.00 | 0.00 | 10 | 956.9 |
| 20260903221144 | 8 | 56 | 1.6 | 11.3 | 0.00 | 0.00 | 0.00 | 10 | 957.0 |
| 20260903220644 | 8 | 119 | 3.2 | 14.5 | 0.00 | 0.00 | 0.00 | 10 | 957.1 |
| 20260903220144 | 8 | 83 | 3.2 | 14.5 | 0.00 | 0.00 | 0.00 | 10 | 957.0 |
| 20260903215643 | 8 | 85 | 3.2 | 12.9 | 0.00 | 0.00 | 0.00 | 10 | 957.0 |
| 20260903215143 | 8 | 99 | 3.2 | 12.9 | 0.00 | 0.00 | 0.00 | 10 | 956.8 |
| 20260903214643 | 9 | 205 | 4.8 | 14.5 | 0.00 | 0.00 | 0.00 | 10 | 956.8 |
| 20260903214143 | 9 | 152 | 4.8 | 14.5 | 0.00 | 0.00 | 0.00 | 10 | 956.7 |
| 20260903213643 | 9 | 210 | 3.2 | 14.5 | 0.00 | 0.00 | 0.00 | 10 | 957.0 |
| 20260903213143 | 9 | 220 | 3.2 | 14.5 | 0.00 | 0.00 | 0.00 | 10 | 956.9 |
| 20260903212643 | 9 | 220 | 3.2 | 12.9 | 0.00 | 0.00 | 0.00 | 10 | 956.9 |
| 20260903212143 | 9 | 95 | 3.2 | 12.9 | 0.00 | 0.00 | 0.00 | 10 | 956.9 |
| 20260903211643 | 9 | 70 | 3.2 | 14.5 | 0.00 | 0.00 | 0.00 | 10 | 956.8 |
| 20260903211143 | 9 | 131 | 3.2 | 14.5 | 0.00 | 0.00 | 0.00 | 10 | 956.8 |
| 20260903210643 | 9 | 87 | 3.2 | 11.3 | 0.00 | 0.00 | 0.00 | 10 | 956.8 |
| 20260903210143 | 9 | 48 | 3.2 | 9.7 | 0.00 | 0.00 | 0.00 | 10 | 956.9 |
| 20260903205643 | 9 | 122 | 3.2 | 9.7 | 0.00 | 0.00 | 0.00 | 10 | 957.0 |
| 20260903205143 | 9 | 81 | 3.2 | 9.7 | 0.00 | 0.00 | 0.00 | 10 | 956.9 |
| 20260903204642 | 9 | 110 | 3.2 | 12.9 | 0.00 | 0.00 | 0.00 | 10 | 956.9 |
| 20260903204142 | 9 | 137 | 3.2 | 14.5 | 0.00 | 0.00 | 0.00 | 10 | 957.0 |
| 20260903203642 | 9 | 92 | 3.2 | 14.5 | 0.00 | 0.00 | 0.00 | 10 | 956.9 |
| 20260903203142 | 9 | 69 | 3.2 | 12.9 | 0.00 | 0.00 | 0.00 | 10 | 957.0 |
| 20260903202642 | 9 | 164 | 4.8 | 12.9 | 0.00 | 0.00 | 0.00 | 10 | 957.0 |
| 20260903202142 | 9 | 120 | 4.8 | 14.5 | 0.00 | 0.00 | 0.00 | 10 | 956.9 |
| 20260903201642 | 9 | 57 | 3.2 | 17.7 | 0.00 | 0.00 | 0.00 | 10 | 956.9 |
| 20260903201142 | 9 | 153 | 3.2 | 17.7 | 0.00 | 0.00 | 0.00 | 10 | 957.0 |
| 20260903200642 | 9 | 55 | 3.2 | 12.9 | 0.00 | 0.00 | 0.00 | 10 | 956.9 |
| 20260903200142 | 9 | 143 | 3.2 | 11.3 | 0.00 | 0.00 | 0.00 | 10 | 957.0 |
| 20260903195642 | 9 | 104 | 3.2 | 11.3 | 0.00 | 0.00 | 0.00 | 10 | 957.0 |
| 20260903195142 | 9 | 144 | 3.2 | 12.9 | 0.00 | 0.00 | 0.00 | 10 | 956.9 |
| 20260903194642 | 9 | 57 | 3.2 | 14.5 | 0.00 | 0.00 | 0.00 | 10 | 957.1 |
| 20260903194142 | 9 | 89 | 3.2 | 14.5 | 0.00 | 0.00 | 0.00 | 10 | 957.1 |
| 20260903193642 | 9 | 85 | 1.6 | 14.5 | 0.00 | 0.00 | 0.00 | 10 | 957.1 |
| 20260903193142 | 9 | 125 | 1.6 | 8.0 | 0.00 | 0.00 | 0.00 | 10 | 957.1 |
| 20260903192612 | 10 | 71 | 1.6 | 11.3 | 0.00 | 0.00 | 0.00 | 10 | 957.0 |
| 20260903192112 | 9 | 108 | 3.2 | 12.9 | 0.00 | 0.00 | 0.00 | 10 | 957.0 |
| 20260903191611 | 10 | 162 | 4.8 | 14.5 | 0.00 | 0.00 | 0.00 | 10 | 957.0 |
| 20260903191111 | 10 | 9 | 4.8 | 14.5 | 0.00 | 0.00 | 0.00 | 10 | 957.0 |
| 20260903190611 | 10 | 237 | 4.8 | 14.5 | 0.00 | 0.00 | 0.00 | 10 | 957.1 |
| 20260903190111 | 10 | 130 | 4.8 | 14.5 | 0.00 | 0.00 | 0.00 | 10 | 957.1 |
| 20260903185611 | 10 | 215 | 4.8 | 14.5 | 0.00 | 0.00 | 0.00 | 10 | 957.1 |
| 20260903185111 | 10 | 139 | 4.8 | 14.5 | 0.00 | 0.00 | 0.00 | 10 | 957.1 |
| 20260903184611 | 10 | 79 | 4.8 | 17.7 | 0.00 | 0.00 | 0.00 | 10 | 957.1 |
| 20260903184111 | 10 | 100 | 4.8 | 17.7 | 0.00 | 0.00 | 0.00 | 10 | 957.1 |
| 20260903183611 | 10 | 164 | 3.2 | 17.7 | 0.00 | 0.00 | 0.00 | 10 | 957.1 |
| 20260903183111 | 10 | 37 | 3.2 | 17.7 | 0.00 | 0.00 | 0.00 | 10 | 957.1 |
| 20260903182611 | 10 | 128 | 3.2 | 12.9 | 0.00 | 0.00 | 0.00 | 10 | 956.9 |
| 20260903182111 | 10 | 178 | 3.2 | 12.9 | 0.00 | 0.00 | 0.00 | 10 | 957.1 |
| 20260903181611 | 10 | 91 | 3.2 | 11.3 | 0.00 | 0.00 | 0.00 | 10 | 957.1 |
| 20260903181110 | 10 | 86 | 3.2 | 11.3 | 0.00 | 0.00 | 0.00 | 10 | 957.0 |
| 20260903180610 | 10 | 119 | 3.2 | 16.1 | 0.00 | 0.00 | 0.00 | 10 | 957.1 |
| 20260903180110 | 10 | 132 | 4.8 | 16.1 | 0.00 | 0.00 | 0.00 | 10 | 957.1 |
| 20260903175610 | 10 | 103 | 4.8 | 16.1 | 0.00 | 0.00 | 0.00 | 10 | 957.1 |
| 20260903175110 | 10 | 204 | 4.8 | 14.5 | 0.00 | 0.00 | 0.00 | 10 | 957.1 |
| 20260903174610 | 10 | 112 | 3.2 | 11.3 | 0.00 | 0.00 | 0.00 | 10 | 957.1 |
| 20260903174110 | 10 | 137 | 4.8 | 12.9 | 0.00 | 0.00 | 0.00 | 10 | 957.1 |
| 20260903173610 | 10 | 80 | 4.8 | 17.7 | 0.00 | 0.00 | 0.00 | 10 | 957.0 |
| 20260903173110 | 10 | 101 | 3.2 | 17.7 | 0.00 | 0.00 | 0.00 | 10 | 957.0 |
| 20260903172610 | 10 | 261 | 3.2 | 14.5 | 0.00 | 0.00 | 0.00 | 10 | 957.1 |
| 20260903172110 | 10 | 49 | 3.2 | 14.5 | 0.00 | 0.00 | 0.00 | 10 | 957.1 |
| 20260903171610 | 10 | 141 | 3.2 | 14.5 | 0.00 | 0.00 | 0.00 | 10 | 957.0 |
| 20260903171110 | 10 | 70 | 3.2 | 11.3 | 0.00 | 0.00 | 0.00 | 10 | 957.0 |
| 20260903170610 | 10 | 187 | 3.2 | 11.3 | 0.00 | 0.00 | 0.00 | 99 | 957.0 |
| 20260903170110 | 10 | 23 | 3.2 | 9.7 | 0.00 | 0.00 | 0.00 | 99 | 957.0 |
| 20260903165610 | 10 | 135 | 4.8 | 14.5 | 0.00 | 0.00 | 0.00 | 99 | 957.0 |
| 20260903165110 | 10 | 273 | 4.8 | 14.5 | 0.00 | 0.00 | 0.00 | 99 | 957.1 |
| 20260903164609 | 10 | 240 | 4.8 | 16.1 | 0.00 | 0.00 | 0.00 | 98 | 957.0 |
| 20260903164109 | 10 | 108 | 4.8 | 16.1 | 0.00 | 0.00 | 0.00 | 98 | 957.1 |
| 20260903163609 | 10 | 100 | 4.8 | 14.5 | 0.00 | 0.00 | 0.00 | 98 | 957.0 |
| 20260903163109 | 10 | 84 | 4.8 | 17.7 | 0.00 | 0.00 | 0.00 | 98 | 956.9 |
| 20260903162609 | 10 | 114 | 4.8 | 17.7 | 0.00 | 0.00 | 0.00 | 98 | 957.0 |
| 20260903162109 | 10 | 116 | 4.8 | 17.7 | 0.00 | 0.00 | 0.00 | 97 | 957.0 |
| 20260903161609 | 10 | 178 | 4.8 | 17.7 | 0.00 | 0.00 | 0.00 | 96 | 957.0 |
| 20260903161109 | 10 | 157 | 3.2 | 17.7 | 0.00 | 0.00 | 0.00 | 96 | 957.0 |
| 20260903160609 | 10 | 91 | 3.2 | 17.7 | 0.00 | 0.00 | 0.00 | 97 | 957.0 |
| 20260903160039 | 10 | 115 | 4.8 | 14.5 | 0.00 | 0.00 | 0.00 | 97 | 957.1 |
| 20260903155539 | 10 | 115 | 4.8 | 14.5 | 0.00 | 0.00 | 0.00 | 97 | 957.1 |
| 20260903155039 | 10 | 107 | 4.8 | 17.7 | 0.00 | 0.00 | 0.00 | 97 | 957.2 |
| 20260903154539 | 10 | 179 | 4.8 | 17.7 | 0.00 | 0.00 | 0.00 | 96 | 957.1 |
| 20260903154039 | 10 | 143 | 4.8 | 14.5 | 0.00 | 0.00 | 0.00 | 95 | 957.1 |
| 20260903153539 | 10 | 107 | 4.8 | 14.5 | 0.00 | 0.00 | 0.00 | 95 | 957.2 |
| 20260903153039 | 10 | 181 | 4.8 | 14.5 | 0.00 | 0.00 | 0.00 | 95 | 957.1 |
| 20260903152538 | 10 | 2 | 3.2 | 17.7 | 0.00 | 0.00 | 0.00 | 95 | 957.2 |
| 20260903152038 | 10 | 110 | 4.8 | 17.7 | 0.00 | 0.00 | 0.00 | 97 | 957.2 |
| 20260903151538 | 10 | 110 | 4.8 | 19.3 | 0.00 | 0.00 | 0.00 | 97 | 957.3 |
| 20260903151038 | 10 | 150 | 4.8 | 19.3 | 0.00 | 0.00 | 0.00 | 97 | 957.3 |
| 20260903150538 | 10 | 75 | 4.8 | 17.7 | 0.00 | 0.00 | 0.00 | 97 | 957.2 |
| 20260903150038 | 10 | 91 | 4.8 | 12.9 | 0.00 | 0.00 | 0.00 | 97 | 957.2 |
| 20260903145538 | 10 | 124 | 4.8 | 14.5 | 0.00 | 0.00 | 0.00 | 97 | 957.2 |
| 20260903145038 | 10 | 188 | 3.2 | 14.5 | 0.00 | 0.00 | 0.00 | 97 | 957.3 |
| 20260903144538 | 10 | 130 | 3.2 | 12.9 | 0.00 | 0.00 | 0.00 | 96 | 957.3 |
| 20260903144038 | 10 | 65 | 4.8 | 14.5 | 0.00 | 0.00 | 0.00 | 95 | 957.4 |
| 20260903143538 | 10 | 147 | 4.8 | 16.1 | 0.00 | 0.00 | 0.00 | 94 | 957.4 |
| 20260903143038 | 10 | 132 | 4.8 | 19.3 | 0.00 | 0.00 | 0.00 | 94 | 957.5 |
| 20260903142538 | 10 | 112 | 4.8 | 19.3 | 0.00 | 0.00 | 0.00 | 93 | 957.5 |
| 20260903142037 | 10 | 185 | 4.8 | 17.7 | 0.00 | 0.00 | 0.00 | 92 | 957.6 |
| 20260903141537 | 10 | 154 | 4.8 | 16.1 | 0.00 | 0.00 | 0.00 | 93 | 957.6 |
| 20260903141037 | 10 | 136 | 4.8 | 20.9 | 0.00 | 0.00 | 0.00 | 91 | 957.5 |
| 20260903140537 | 10 | 131 | 4.8 | 20.9 | 0.00 | 0.00 | 0.00 | 91 | 957.6 |
| 20260903140037 | 10 | 132 | 4.8 | 19.3 | 0.00 | 0.00 | 0.00 | 89 | 957.6 |
| 20260903135537 | 10 | 130 | 4.8 | 14.5 | 0.00 | 0.00 | 0.00 | 89 | 957.7 |
| 20260903135037 | 10 | 82 | 4.8 | 17.7 | 0.00 | 0.00 | 0.00 | 89 | 957.7 |
| 20260903134537 | 10 | 109 | 4.8 | 17.7 | 0.00 | 0.00 | 0.00 | 90 | 957.7 |
| 20260903134038 | 10 | 108 | 4.8 | 19.3 | 0.00 | 0.00 | 0.00 | 90 | 957.8 |
| 20260903133537 | 10 | 154 | 4.8 | 20.9 | 0.00 | 0.00 | 0.00 | 88 | 957.7 |
| 20260903133037 | 10 | 138 | 4.8 | 20.9 | 0.00 | 0.00 | 0.00 | 86 | 957.6 |
| 20260903132537 | 10 | 142 | 4.8 | 17.7 | 0.00 | 0.00 | 0.00 | 87 | 957.7 |
| 20260903132037 | 10 | 116 | 6.4 | 17.7 | 0.00 | 0.00 | 0.00 | 86 | 957.8 |
| 20260903131537 | 10 | 171 | 6.4 | 29.0 | 0.00 | 0.00 | 0.00 | 85 | 957.7 |
| 20260903131037 | 10 | 143 | 6.4 | 29.0 | 0.00 | 0.00 | 0.00 | 81 | 957.7 |
| 20260903130537 | 10 | 145 | 6.4 | 20.9 | 0.00 | 0.00 | 0.00 | 82 | 957.7 |
| 20260903130037 | 10 | 68 | 6.4 | 25.7 | 0.00 | 0.00 | 0.00 | 84 | 957.8 |
| 20260903125537 | 11 | 121 | 6.4 | 25.7 | 0.00 | 0.00 | 0.00 | 84 | 957.6 |
| 20260903125037 | 11 | 134 | 6.4 | 17.7 | 0.00 | 0.00 | 0.00 | 82 | 958.0 |
| 20260903124536 | 11 | 143 | 4.8 | 17.7 | 0.00 | 0.00 | 0.00 | 81 | 957.7 |
| 20260903124036 | 11 | 165 | 4.8 | 24.1 | 0.00 | 0.00 | 0.00 | 81 | 957.7 |
| 20260903123536 | 11 | 89 | 6.4 | 25.7 | 0.00 | 0.00 | 0.00 | 82 | 957.7 |
| 20260903123036 | 11 | 109 | 6.4 | 25.7 | 0.00 | 0.00 | 0.00 | 82 | 957.8 |
| 20260903122536 | 11 | 101 | 6.4 | 25.7 | 0.00 | 0.00 | 0.00 | 80 | 957.8 |
| 20260903122036 | 11 | 114 | 6.4 | 22.5 | 0.00 | 0.00 | 0.00 | 80 | 957.9 |
| 20260903121536 | 11 | 106 | 6.4 | 22.5 | 0.00 | 0.00 | 0.00 | 82 | 957.8 |
| 20260903121036 | 11 | 61 | 6.4 | 33.8 | 0.00 | 0.00 | 0.00 | 87 | 957.8 |
| 20260903120536 | 11 | 86 | 8.0 | 33.8 | 0.00 | 0.00 | 0.00 | 84 | 957.8 |
| 20260903120036 | 11 | 336 | 8.0 | 33.8 | 0.00 | 0.00 | 0.00 | 80 | 957.6 |
| 20260903115536 | 11 | 146 | 8.0 | 25.7 | 0.00 | 0.00 | 0.00 | 82 | 957.8 |
| 20260903115036 | 11 | 196 | 8.0 | 25.7 | 0.00 | 0.00 | 0.00 | 79 | 957.8 |
| 20260903114536 | 11 | 88 | 8.0 | 20.9 | 0.00 | 0.00 | 0.00 | 81 | 957.7 |
| 20260903114036 | 11 | 112 | 6.4 | 20.9 | 0.00 | 0.00 | 0.00 | 81 | 957.8 |
| 20260903113536 | 11 | 127 | 8.0 | 22.5 | 0.00 | 0.00 | 0.00 | 79 | 957.7 |
| 20260903113035 | 11 | 99 | 8.0 | 38.6 | 0.00 | 0.00 | 0.00 | 78 | 957.9 |
| 20260903112535 | 11 | 41 | 8.0 | 38.6 | 0.00 | 0.00 | 0.00 | 76 | 957.8 |
| 20260903112035 | 11 | 124 | 8.0 | 24.1 | 0.00 | 0.00 | 0.00 | 76 | 957.7 |
| 20260903111535 | 12 | 105 | 8.0 | 24.1 | 0.00 | 0.00 | 0.00 | 74 | 957.7 |
| 20260903111035 | 11 | 152 | 8.0 | 24.1 | 0.00 | 0.00 | 0.00 | 78 | 957.6 |
| 20260903110535 | 12 | 89 | 8.0 | 22.5 | 0.00 | 0.00 | 0.00 | 80 | 957.7 |
| 20260903110035 | 11 | 66 | 9.7 | 32.2 | 0.00 | 0.00 | 0.00 | 82 | 957.7 |
| 20260903105535 | 11 | 175 | 9.7 | 32.2 | 0.00 | 0.00 | 0.00 | 82 | 957.7 |
| 20260903105035 | 11 | 203 | 8.0 | 32.2 | 0.00 | 0.00 | 0.00 | 81 | 957.5 |
| 20260903104535 | 11 | 204 | 9.7 | 37.0 | 0.00 | 0.00 | 0.00 | 80 | 957.6 |
| 20260903104035 | 11 | 130 | 11.3 | 37.0 | 0.00 | 0.00 | 0.00 | 80 | 957.6 |
| 20260903103535 | 11 | 220 | 9.7 | 37.0 | 0.00 | 0.00 | 0.00 | 78 | 957.6 |
| 20260903103035 | 12 | 202 | 8.0 | 27.4 | 0.00 | 0.00 | 0.00 | 76 | 957.7 |
| 20260903102535 | 13 | 127 | 8.0 | 40.2 | 0.00 | 0.00 | 0.00 | 73 | 957.6 |
| 20260903102035 | 13 | 105 | 8.0 | 40.2 | 0.00 | 0.00 | 0.00 | 71 | 957.4 |
| 20260903101534 | 13 | 63 | 8.0 | 24.1 | 0.00 | 0.00 | 0.00 | 70 | 957.4 |
| 20260903101034 | 14 | 108 | 6.4 | 22.5 | 0.00 | 0.00 | 0.00 | 67 | 957.4 |
| 20260903100534 | 15 | 160 | 6.4 | 19.3 | 0.00 | 0.00 | 0.00 | 66 | 957.4 |
| 20260903100034 | 15 | 128 | 4.8 | 19.3 | 0.00 | 0.00 | 0.00 | 68 | 957.4 |
| 20260903095534 | 15 | 105 | 4.8 | 19.3 | 0.00 | 0.00 | 0.00 | 73 | 957.6 |
| 20260903095034 | 13 | 131 | 4.8 | 19.3 | 0.00 | 0.00 | 0.00 | 75 | 957.6 |
| 20260903094534 | 13 | 123 | 4.8 | 27.4 | 0.00 | 0.00 | 0.00 | 76 | 957.6 |
| 20260903094034 | 12 | 58 | 6.4 | 27.4 | 0.00 | 0.00 | 0.00 | 77 | 957.6 |
| 20260903093534 | 12 | 89 | 6.4 | 25.7 | 0.00 | 0.00 | 0.00 | 78 | 957.6 |
| 20260903093034 | 12 | 51 | 6.4 | 25.7 | 0.00 | 0.00 | 0.00 | 80 | 957.6 |
| 20260903092534 | 12 | 121 | 6.4 | 20.9 | 0.00 | 0.00 | 0.00 | 77 | 957.5 |
| 20260903092034 | 12 | 115 | 8.0 | 24.1 | 0.00 | 0.00 | 0.00 | 78 | 957.5 |
| 20260903091534 | 12 | 102 | 8.0 | 24.1 | 0.00 | 0.00 | 0.00 | 77 | 957.5 |
| 20260903091033 | 12 | 190 | 6.4 | 22.5 | 0.00 | 0.00 | 0.00 | 78 | 957.6 |
| 20260903090533 | 12 | 324 | 6.4 | 19.3 | 0.00 | 0.00 | 0.00 | 79 | 957.6 |
| 20260903090033 | 11 | 221 | 6.4 | 19.3 | 0.00 | 0.00 | 0.00 | 80 | 957.5 |
| 20260903085533 | 11 | 161 | 6.4 | 22.5 | 0.00 | 0.00 | 0.00 | 80 | 957.5 |
| 20260903085033 | 12 | 116 | 6.4 | 22.5 | 0.00 | 0.00 | 0.00 | 80 | 957.4 |
| 20260903084533 | 12 | 244 | 6.4 | 24.1 | 0.00 | 0.00 | 0.00 | 79 | 957.6 |
| 20260903084033 | 12 | 116 | 8.0 | 29.0 | 0.00 | 0.00 | 0.00 | 82 | 957.5 |
| 20260903083533 | 11 | 106 | 8.0 | 29.0 | 0.00 | 0.00 | 0.00 | 82 | 957.4 |
| 20260903083033 | 12 | 136 | 6.4 | 22.5 | 0.00 | 0.00 | 0.00 | 82 | 957.4 |
| 20260903082533 | 11 | 163 | 6.4 | 25.7 | 0.00 | 0.00 | 0.00 | 82 | 957.4 |
| 20260903082033 | 11 | 208 | 6.4 | 25.7 | 0.00 | 0.00 | 0.00 | 85 | 957.5 |
| 20260903081533 | 11 | 177 | 6.4 | 25.7 | 0.00 | 0.00 | 0.00 | 85 | 957.4 |
| 20260903081033 | 11 | 127 | 6.4 | 17.7 | 0.00 | 0.00 | 0.00 | 85 | 957.4 |
| 20260903080533 | 11 | 82 | 6.4 | 17.7 | 0.00 | 0.00 | 0.00 | 85 | 957.4 |
| 20260903080033 | 11 | 70 | 6.4 | 17.7 | 0.00 | 0.00 | 0.00 | 86 | 957.5 |
| 20260903075533 | 11 | 100 | 4.8 | 22.5 | 0.00 | 0.00 | 0.00 | 86 | 957.4 |
| 20260903075033 | 11 | 77 | 4.8 | 22.5 | 0.00 | 0.00 | 0.00 | 86 | 957.4 |
| 20260903074533 | 11 | 210 | 4.8 | 16.1 | 0.00 | 0.00 | 0.00 | 86 | 957.5 |
| 20260903074032 | 11 | 168 | 4.8 | 17.7 | 0.00 | 0.00 | 0.00 | 87 | 957.4 |
| 20260903073532 | 11 | 152 | 4.8 | 17.7 | 0.00 | 0.00 | 0.00 | 86 | 957.4 |
| 20260903073032 | 11 | 137 | 4.8 | 12.9 | 0.00 | 0.00 | 0.00 | 88 | 957.4 |
| 20260903072532 | 10 | 95 | 4.8 | 16.1 | 0.00 | 0.00 | 0.00 | 91 | 957.5 |
| 20260903072032 | 10 | 110 | 4.8 | 16.1 | 0.00 | 0.00 | 0.00 | 92 | 957.6 |
| 20260903071532 | 10 | 89 | 4.8 | 14.5 | 0.00 | 0.00 | 0.00 | 91 | 957.6 |
| 20260903071032 | 10 | 104 | 4.8 | 14.5 | 0.00 | 0.00 | 0.00 | 91 | 957.6 |
| 20260903070532 | 10 | 114 | 4.8 | 14.5 | 0.00 | 0.00 | 0.00 | 90 | 957.6 |